OBJECT B, 44880

Orbit data source: Space-Track

You're viewing an Uncataloged Satellite

Recently launched and/or uncataloged satellites may have evolving metadata. Metadata may include but not limited to: Owner, Maufacturer, Bus, Motor, and Mission.

OBJECT B, 44880 is a satellite in SSO that was launched on Fri, 20 Dec 2019 UTC via a CHANG ZHENG 4B launch vehicle from the Taiyaun Space Center, China (TSC). Unknown objects in Earth's orbit typically refer to objects detected orbiting the Earth but have not yet been identified or cataloged. These objects could be anything from previously untracked satellites, spent rocket stages, debris from satellite collisions, or even natural meteoroids temporarily captured by Earth's gravity.

Loading next visibility...
OBJECT B details
Identifier
44880, 2019-093B
Orbit
SSO
Last TLE update8 hours ago
Origin
Flag of TBDESSTI (TBD)
ManufacturerDFH
MissionOperational Civil Imaging
Bus & MotorUnknown
Mass70 kg wet, 70 kg dry
Launch date (UTC)
2019-12-20 (5 years ago)
Launch vehicle
CHANG ZHENG 4B
Launch site
Taiyaun Space Center, China (TSC)
Object typeUnknown
Shape & HBRBox + 2 Pan, Unknown HBR
Radar Cross Section0.195 m², Medium (>0.1 m² and < 1m²)

Expand to show TLE details & history

TLE from 8 hours ago
0 OBJECT B
1 44880U 19093B   24361.52477852  .00007821  00000-0  80284-3 0  9995
2 44880  97.8239  78.9608 0013485  45.8272 314.4052 14.90601396271807
Epoch: 2024-12-26T12:35Z
Definitive object data (Epoch: 2024-12-26T12:35:40.864Z)
Latitude0.00001°
Longitude154.5376°
Altitude592.522 km
Speed7.567 km/s
True Right ascension05h 15m 50s
True Declination0° 00' 00"
Sunlit
Object was in full shadow at TLE epoch
Visualization TLE readout
Latitude5.27987°
Longitude154.14744°
Altitude591.265 km
Speed7.569 km/s
Apparent Right ascension06h 23m 32s
Apparent Declination-17° 14' 07"
Sunlit
Object is in full shadow
Visualization observer readout
Local Sidereal Time20:03:17
Azimuth50.797° ENE
Elevation-58.69°
Doppler factor1
Orbital elements
Apogee altitude602.483 km
Perigee altitude583.682 km
Semi-major axis6,971.219 km
Eccentricity0.0013485
Inclination97.8239°
RAAN78.9608°
Arg. of periapsis45.8272°
True anomaly314.29467°
Mean anomaly314.4052°
Eccentric anomaly314.34995°
Mean motion3.72889 °/min
BSTAR0.00080284
Orbital period96.54 mins
Loading maneuver chart data...
Loading historical data...
Loading historical data...
Loading historical data...
Loading historical data...
Loading historical data...
Loading historical data...
Loading historical data...

OBJECT B Visibility forecast

Observer location: undefined°, undefined

Span
Click to sort rows by Start time (UTC) header in descending order
Start Az.
Max El. time (UTC)
Max El. Az.
Max El.
End time (UTC)
End Az.
6 mins2024-12-27 04:50:25.377Z133.095° SE2024-12-27 04:53:25.377Z76.89° E29.674°2024-12-27 04:56:25.377Z12.401° NNE
6 mins2024-12-27 18:10:25.377Z19.418° NNE2024-12-27 18:13:25.377Z141.292° SSE43.082°2024-12-27 18:16:25.377Z185.926° SSW
|